Wind_Speed
43 42 40 39 38 37 36 35 34 32 32 31 29 27 25 24 23 22 21 21 21 21 22 23 24 26 28 30 31 32 33 34 33 35 37 37 37 36
47 46 45 43 42 40 39 37 36 34 33 33 32 29 27 26 25 25 23 23 23 23 23 23 24 25 27 29 31 32 33 34 35 35 37 38 38 37
51 50 48 47 45 44 42 40 38 36 34 34 34 32 30 29 27 27 26 24 24 24 24 24 25 26 26 28 31 32 33 34 35 36 37 38 39 38
56 54 52 51 49 48 46 43 41 39 37 35 35 35 33 31 29 28 27 26 26 26 25 25 25 25 26 28 29 31 32 33 34 36 37 38 39 39
59 58 56 54 53 51 49 47 45 42 40 38 37 36 34 32 31 30 29 27 26 26 26 26 26 26 26 28 29 30 31 32 34 36 38 39 39 39
61 60 59 57 55 54 52 50 47 45 42 40 38 37 36 34 32 31 30 29 27 26 26 26 26 26 27 28 30 31 31 32 33 35 37 38 39 39
61 61 60 59 58 56 54 52 50 47 45 42 40 38 36 35 33 32 31 29 28 27 27 26 26 27 28 29 29 30 30 31 32 34 36 37 38 38
58 60 61 60 59 58 56 54 51 49 46 44 42 39 37 36 35 33 31 30 29 28 27 26 25 26 27 28 29 29 30 31 32 33 34 34 35 36
52 55 58 59 59 59 58 56 53 50 48 45 42 40 38 37 36 34 31 30 29 28 28 28 27 26 26 27 28 29 29 30 31 31 32 33 34 35
43 47 52 56 58 58 57 56 54 51 49 47 44 41 39 38 36 34 32 30 30 29 28 28 27 27 26 26 27 27 28 29 29 30 30 31 32 33
35 39 44 49 53 56 56 55 54 52 50 48 45 42 40 38 36 34 32 30 30 29 28 28 27 27 27 27 27 28 28 28 28 28 29 29 31 32
32 34 37 41 46 50 52 53 53 52 51 49 46 44 41 39 37 34 32 30 29 28 28 27 26 26 27 27 27 28 28 29 29 29 28 28 29 30
31 32 34 37 41 45 47 48 50 51 50 49 47 44 42 39 37 34 32 31 30 28 27 26 26 26 26 26 26 26 27 28 28 28 28 28 28 29
29 30 32 34 38 41 42 45 47 49 48 48 47 44 42 40 37 35 34 32 30 28 27 26 26 26 26 25 25 25 25 25 25 26 27 26 27 27
26 27 29 31 35 38 40 42 44 45 46 46 45 44 43 40 38 35 33 32 30 28 27 26 26 25 24 24 24 24 23 24 24 24 25 26 25 25
22 23 25 28 33 36 38 41 42 43 44 44 44 43 42 40 38 35 33 32 30 29 27 26 25 24 23 22 22 22 21 21 22 23 23 23 22 22
19 19 22 25 31 33 34 37 39 41 41 42 42 41 40 40 38 35 33 31 30 29 28 26 25 24 22 21 21 20 20 20 21 21 21 22 22 22
15 16 19 24 28 31 32 34 36 38 39 39 40 39 39 38 37 34 32 32 30 29 28 26 24 24 23 22 22 21 21 21 20 21 21 21 21 21
12 13 18 23 26 29 31 32 33 35 36 37 39 38 38 37 35 34 32 31 29 29 28 27 25 24 24 23 21 21 21 21 20 20 21 21 21 20
10 11 15 21 24 28 31 31 31 33 34 35 36 35 35 35 34 32 31 30 28 28 26 25 25 24 24 23 22 21 22 22 22 21 21 20 21 21
10 13 15 20 24 28 31 31 30 31 32 33 33 33 32 32 32 30 29 28 27 26 25 25 24 24 23 22 22 22 21 21 20 21 21 21 21 22
12 14 16 18 22 28 30 29 29 29 31 31 30 29 30 30 29 28 27 26 25 25 25 24 24 23 22 22 21 21 21 21 21 21 22 22 23 24
15 16 18 19 22 26 27 26 27 28 29 29 29 28 28 27 27 26 25 25 24 24 23 23 22 22 21 21 21 20 21 21 22 22 23 24 25 26
Wind_Direction
253 252 252 251 249 247 246 246 247 249 251 253 253 252 252 254 255 256 257 260 261 261 259 257 254 250 248 245 245 244 243 243 243 242 238 238 239 241
251 250 250 250 249 248 246 246 245 245 246 250 252 252 251 251 253 255 258 260 261 260 258 257 255 252 250 248 245 245 245 243 243 242 238 238 239 241
250 248 248 248 248 247 246 245 244 243 243 244 248 250 251 251 252 253 256 259 261 259 258 256 255 254 251 249 247 246 244 243 242 241 239 237 238 239
248 247 246 246 246 246 245 244 244 243 242 240 244 248 250 250 251 252 254 257 260 258 257 255 253 254 253 251 248 247 244 242 242 240 239 238 238 239
247 246 245 245 245 244 244 243 243 242 241 240 241 244 247 249 249 251 253 255 258 258 256 255 255 254 255 253 249 247 244 241 240 239 238 238 238 238
247 245 244 243 243 243 242 241 241 241 240 239 239 241 243 246 247 249 252 253 255 254 255 256 257 256 256 254 250 247 246 241 240 240 240 238 238 240
246 244 243 242 241 241 240 239 239 239 239 238 237 238 241 243 245 247 250 251 252 252 254 256 257 256 255 253 251 249 247 244 241 241 241 240 240 241
246 244 242 241 239 239 238 237 237 237 237 236 236 236 238 241 243 245 248 248 249 250 252 254 256 256 256 252 249 247 246 245 244 242 240 240 239 240
247 244 241 239 238 237 236 235 234 234 234 234 234 234 236 238 241 243 244 246 246 247 251 254 255 254 252 249 248 246 246 246 244 242 241 241 240 240
248 245 242 238 236 235 234 233 232 232 231 231 232 232 233 235 238 240 241 244 245 247 251 254 255 253 251 249 247 246 245 245 242 242 242 242 241 240
248 247 243 239 235 233 232 231 230 229 229 228 229 230 231 232 234 237 239 241 244 246 250 252 252 250 247 248 248 246 243 241 240 241 244 244 244 243
248 247 243 238 233 230 229 228 227 226 226 225 225 227 228 229 232 234 235 238 240 244 247 248 248 247 246 246 246 245 242 240 241 242 243 243 243 244
248 247 244 237 232 227 225 225 224 223 223 222 222 223 225 227 229 231 232 236 238 242 244 244 244 244 244 245 245 245 244 242 242 243 245 245 243 244
250 247 244 237 230 224 223 221 220 219 219 219 219 220 222 225 227 228 230 234 237 239 240 241 242 241 243 244 242 242 242 241 241 243 245 243 244 243
250 247 242 235 224 219 218 217 217 216 216 215 216 218 220 222 224 225 227 231 234 234 235 237 237 239 240 241 240 239 239 238 239 241 241 241 244 244
249 243 237 228 217 213 213 213 212 211 212 212 213 215 217 219 221 223 225 227 230 230 230 230 232 234 236 236 235 235 235 236 237 239 239 239 241 243
245 238 227 218 211 207 206 206 207 207 207 208 210 212 213 215 218 220 222 224 225 225 225 225 228 229 230 231 230 231 234 235 236 238 238 240 241 244
240 228 219 212 206 201 201 201 203 203 203 205 207 208 209 211 214 216 218 220 220 220 220 222 224 226 226 226 228 230 233 235 237 238 240 243 244 245
229 218 210 202 198 195 193 194 197 199 199 202 203 204 205 207 210 212 215 216 216 216 218 221 222 223 223 225 228 231 234 235 237 240 244 244 245 247
213 206 196 191 190 186 188 189 189 192 194 195 197 199 202 205 207 209 210 211 213 214 216 219 219 219 221 225 229 234 237 238 238 241 243 243 245 248
176 175 173 174 175 175 177 178 180 183 185 189 192 195 198 201 202 204 206 208 210 212 213 216 218 220 223 229 234 238 240 239 240 241 243 246 249 252
152 156 156 158 164 168 171 175 175 176 179 183 185 189 193 196 197 199 203 206 209 211 213 215 217 221 226 231 235 239 240 240 242 244 247 251 254 256
140 145 147 150 155 162 166 168 170 173 176 178 180 184 188 191 194 198 203 205 207 209 210 212 217 223 227 231 237 239 241 243 246 250 253 256 259 262
Height
5752 5755 5757 5760 5763 5766 5769 5773 5776 5778 5780 5782 5784 5786 5788 5790 5791 5793 5794 5795 5796 5797 5799 5800 5802 5804 5806 5809 5812 5815 5818 5821 5824 5827 5831 5835 5839 5842
5738 5742 5745 5748 5751 5754 5758 5762 5766 5769 5772 5773 5775 5778 5780 5783 5784 5786 5787 5788 5789 5791 5792 5793 5795 5797 5799 5801 5804 5807 5810 5813 5816 5819 5822 5826 5831 5834
5723 5727 5731 5734 5738 5742 5746 5750 5754 5758 5762 5765 5766 5769 5772 5775 5777 5779 5780 5781 5782 5783 5785 5786 5788 5790 5792 5794 5796 5798 5801 5804 5807 5810 5814 5818 5822 5826
5706 5711 5716 5720 5724 5728 5733 5738 5742 5747 5752 5755 5757 5760 5763 5766 5769 5771 5773 5774 5775 5776 5777 5779 5781 5783 5784 5786 5788 5790 5793 5795 5798 5802 5806 5810 5813 5817
5688 5694 5699 5704 5709 5714 5719 5724 5730 5735 5740 5745 5748 5751 5754 5757 5760 5762 5765 5766 5767 5769 5770 5772 5774 5775 5777 5779 5780 5783 5785 5787 5790 5794 5797 5801 5805 5808
5669 5675 5681 5687 5693 5699 5705 5711 5716 5722 5728 5733 5738 5741 5745 5748 5751 5754 5756 5758 5760 5761 5763 5765 5766 5767 5769 5771 5773 5775 5777 5779 5782 5785 5789 5792 5796 5799
5650 5656 5662 5669 5676 5682 5689 5696 5702 5709 5715 5721 5726 5731 5735 5738 5742 5745 5747 5750 5752 5754 5755 5757 5759 5760 5761 5763 5765 5767 5769 5772 5774 5777 5781 5784 5787 5791
5630 5636 5643 5651 5658 5666 5673 5681 5688 5695 5702 5709 5715 5720 5725 5729 5732 5736 5739 5742 5744 5746 5748 5750 5751 5752 5754 5755 5757 5759 5762 5764 5767 5770 5773 5776 5779 5782
5612 5618 5625 5633 5640 5648 5657 5665 5674 5681 5689 5697 5703 5709 5714 5719 5723 5727 5730 5733 5736 5738 5740 5742 5743 5745 5746 5748 5749 5752 5754 5757 5759 5762 5765 5768 5771 5774
5597 5602 5607 5615 5623 5631 5640 5649 5659 5668 5676 5684 5692 5698 5703 5708 5713 5717 5721 5724 5727 5730 5732 5734 5736 5737 5739 5741 5743 5745 5747 5750 5752 5755 5758 5760 5763 5766
5584 5588 5592 5599 5607 5615 5625 5635 5644 5653 5662 5671 5680 5687 5693 5698 5704 5708 5713 5716 5719 5722 5725 5727 5729 5730 5732 5734 5736 5738 5741 5743 5746 5748 5751 5753 5756 5759
5573 5576 5580 5585 5591 5599 5609 5620 5630 5640 5649 5659 5668 5676 5683 5689 5694 5700 5704 5708 5711 5714 5717 5719 5721 5723 5725 5727 5729 5731 5734 5736 5739 5742 5744 5746 5749 5751
5562 5566 5569 5573 5579 5587 5597 5607 5617 5627 5637 5647 5656 5665 5673 5679 5685 5691 5696 5700 5704 5707 5710 5712 5714 5716 5719 5721 5722 5725 5727 5730 5732 5735 5737 5739 5742 5744
5552 5555 5558 5563 5569 5577 5585 5595 5604 5615 5626 5636 5646 5655 5663 5671 5677 5682 5688 5692 5696 5700 5702 5705 5707 5710 5712 5714 5716 5718 5721 5723 5726 5728 5730 5733 5735 5737
5543 5546 5549 5553 5559 5567 5576 5585 5595 5605 5616 5626 5636 5646 5654 5661 5668 5674 5679 5684 5688 5692 5695 5698 5701 5703 5706 5708 5710 5713 5715 5717 5720 5722 5725 5727 5729 5731
5536 5538 5541 5545 5551 5558 5567 5577 5587 5597 5607 5618 5627 5636 5645 5653 5660 5666 5672 5677 5681 5685 5688 5692 5695 5698 5700 5702 5705 5707 5710 5712 5714 5717 5719 5721 5723 5725
5530 5532 5535 5540 5546 5552 5561 5570 5580 5590 5600 5610 5620 5628 5637 5645 5652 5659 5665 5670 5675 5679 5682 5686 5689 5692 5695 5698 5700 5703 5705 5707 5709 5711 5714 5716 5718 5720
5526 5528 5531 5535 5541 5548 5556 5566 5575 5585 5594 5604 5613 5622 5630 5638 5646 5652 5658 5663 5668 5673 5676 5681 5684 5687 5690 5693 5696 5698 5700 5703 5705 5707 5709 5711 5713 5714
5523 5525 5528 5532 5538 5545 5554 5563 5571 5581 5590 5599 5608 5616 5625 5633 5640 5646 5652 5657 5662 5667 5671 5675 5679 5682 5685 5688 5691 5693 5696 5698 5700 5702 5704 5706 5707 5709
5521 5523 5527 5530 5536 5543 5552 5561 5569 5578 5587 5595 5604 5612 5620 5628 5635 5641 5647 5653 5658 5662 5666 5670 5674 5677 5681 5684 5687 5689 5691 5693 5695 5697 5698 5700 5701 5703
5522 5524 5527 5532 5537 5544 5552 5561 5569 5577 5586 5594 5602 5609 5617 5624 5631 5637 5643 5648 5653 5658 5662 5666 5669 5673 5676 5679 5681 5683 5686 5687 5689 5691 5693 5694 5695 5697
5524 5527 5531 5535 5540 5547 5555 5562 5570 5577 5586 5594 5601 5608 5615 5622 5628 5634 5640 5645 5649 5654 5658 5662 5665 5668 5671 5674 5676 5678 5680 5682 5684 5685 5687 5688 5689 5690
5528 5532 5536 5540 5545 5551 5559 5566 5573 5580 5587 5595 5602 5608 5615 5621 5626 5632 5637 5642 5646 5650 5654 5658 5661 5664 5667 5669 5671 5673 5675 5677 5678 5679 5680 5681 5682 5682